Regional Weather Roundup
Issued by NWS Charleston, SC

Current Version | Previous Version | Text Only | Print | Product List | Glossary On
Versions: 1 2 3 4 5 6 7 8 9 10 11 12 13 14 15 16 17 18 19 20 21 22 23 24 25 26 27 28 29 30 31 32 33 34 35 36 37 38 39 40 41 42 43 44 45 46 47 48 49 50
000 ASUS42 KCHS 230225 RWRCHS REGIONAL WEATHER ROUNDUP NATIONAL WEATHER SERVICE CHARLESTON SC 1000 PM EDT TUE JUL 22 2014 NOTE: "FAIR" INDICATES FEW OR NO CLOUDS BELOW 12,000 FEET WITH NO SIGNIFICANT WEATHER AND/OR OBSTRUCTIONS TO VISIBILITY. NOT ALL STATIONS ARE QUALITY CONTROLLED BY THE NATIONAL WEATHER SERVICE. USE DATA WITH CAUTION...ESPECIALLY DEWPOINT OBSERVATIONS. SCZ027-030-031-034>040-042>050-230300- ...SOUTH CAROLINA... CITY SKY/WX TMP DP RH WIND PRES REMARKS N CHARLESTON PTCLDY 80 74 81 S5 30.10R WATERFRONT PRK N/A 82 N/A N/A SE8 N/A FORT JOHNSON NOT AVBL MOUNT PLEASANT FAIR 77 75 94 CALM 30.10S JOHNS ISLAND CLEAR 79 70 73 CALM 30.10S PINOPOLIS N/A 81 75 83 SE2 30.03R MONCKS CORNER N/A 79 77 94 CALM 30.10S SUMMERVILLE FAIR 77 77 100 CALM 30.11R BEAUFORT MCAS MOCLDY 81 77 88 S3 30.09R BEAUFORT ARPT FAIR 79 77 94 CALM 30.09S HILTON HEAD IS MOCLDY 79 75 89 CALM 30.11R GEORGETOWN NOT AVBL WALTERBORO PTCLDY 79 N/A N/A SE3 30.11S ORANGEBURG PTCLDY 78 74 87 SE5 30.10R BARNWELL CLOUDY 79 73 83 E5 30.11R AIKEN FAIR 77 77 100 CALM 30.15R MANNING FAIR 79 N/A N/A MISG 30.10R KINGSTREE NOT AVBL COLUMBIA LGT RAIN 82 74 76 CALM 30.10R SUMTER CLEAR 78 76 94 SE1 30.08S FLORENCE PTCLDY 79 75 87 S5 30.10R MYRTLE BEACH PTCLDY 81 73 78 S9 30.10R N MYRTLE BEACH MOCLDY 80 74 81 S8 30.10R $$ GAZ063-065-086>088-099>101-113>116-118-119-134-136>141-150-230300- ...GEORGIA... CITY SKY/WX TMP DP RH WIND PRES REMARKS SAVANNAH ARPT PTCLDY 80 73 79 SE5 30.09R HUNTER AAF PTCLDY 79 76 90 SE2 30.07R FORT STEWART MOCLDY 79 74 86 CALM 30.08S STATESBORO NOT AVBL SYLVANIA LGT RAIN 75 75 99 CALM 30.12R CLAXTON MOCLDY N/A N/A N/A W3 30.10R THOMSON MOCLDY 76 76 100 CALM 30.15S AUGUSTA-BUSH PTCLDY 77 73 87 NE3 30.08R AUGUSTA-DANIEL MOCLDY 80 73 79 E7 30.10R SWAINSBORO CLOUDY 79 79 100 S6 30.12R VIDALIA N/A 75 73 94 E3 30.10F ALMA MOCLDY 76 72 87 CALM 30.09R WAYCROSS CLOUDY 79 78 97 CALM 30.08S JESUP NOT AVBL BRUNSWICK CLEAR 79 73 83 CALM 30.09S SAINT SIMONS PTCLDY 80 74 81 SE7 30.08S $$ SCZ027-028-034-036>038-045-046-048>050-GAZ119-141-230300- ...LAKE AND SUPPLEMENTAL COASTAL OBSERVATIONS... STATION/POSITION TIME TEMP WIND PRES WAVE SWELL AIR SEA DIR/SP/G HT/PER HT/PER/DIR (UTC) (F) (DEG/KT/KT) (MB) (FT/S) (FT/S/D) UPR LAKE MARION NOT AVBL WINYAH BAY 0200 79 180/ 4 1019.0S LAKE MURRAY 0200 78 CALM / 1 1018.6R ACE BASIN NERRS 0200 79 CALM 1019.0S FORT PULASKI 0200 80 140/ 1/ 2 1019.3R SAPELO ISLAND 0200 79 130/ 3 1019.0S $$ ANZ835-935-AMZ111-154-330-350-352-354-374-450-454-472-230300- ...C-MAN AND BUOY OBSERVATIONS... STATION/POSITION TIME TEMP WIND PRES WAVE SWELL AIR SEA DIR/SP/G HT/PER HT/PER/DIR (UTC) (F) (DEG/KT/KT) (MB) (FT/S) (FT/S/D) FOLLY BEACH CMAN 0200 80 140/ 8/ 9 1019.7R BUOY 41004 0200 81 82 140/ 10/ 14 1018.5R 3/ 7 2/ 7 BUOY 41008 0200 81 84 140/ 10/ 12 1018.5R 2/ 9 2/110/ 9 5E ST. MARYS GA 0200 84 N/A 3/ 8 FRYING PAN BUOY NOT AVBL BUOY 41025 0200 VRB 14/ 16 1019.6R 4/ 7 2/130/ 7 CAPE LOOKOUT NC 0200 79 190/ 15/ 17 1019.5R BUOY 41002 0145 81 82 180/ 12/ 14 1021.9R 3/ 8 3/100/ 8 BUOY 41010 0200 83 83 140/ 12/ 14 1019.4R 4/ 6 3/120/ 6 BUOY 41012 NOT AVBL ST AUGUSTINE FL 0200 82 130/ 10/ 11 1018.4F CAPERS NEARSHORE 0100 80 140/ 8/ 10 N/A FRIPP NEARSHORE NOT AVBL $$

USA.gov is the U.S. government's official web portal to all federal, state and local government web resources and services.